Regional Weather Roundup
Issued by NWS Charleston, WV

Home | Current Version | Previous Version | Text Only | Print | Product List | Glossary On
Versions: 1 2 3 4 5 6 7 8 9 10 11 12 13 14 15 16 17 18 19 20 21 22 23 24 25 26 27 28 29 30 31 32 33 34 35 36 37 38 39 40 41 42 43 44 45 46 47 48 49 50
812
ASUS41 KRLX 211810
RWRRLX
Regional Weather Roundup
National Weather Service Charleston WV
200 PM EDT SAT SEP 21 2019

Note: "fair" indicates few or no clouds below 12,000 feet with no
significant weather and/or obstructions to visibility.

WVZ003-211900-
Northern Panhandle of West Virginia

CITY           SKY/WX    TMP DP  RH WIND       PRES   REMARKS
WHEELING       FAIR      86  65  49 SW9       30.20F
$$

WVZ009-211900-
Northwest West Virginia

CITY           SKY/WX    TMP DP  RH WIND       PRES   REMARKS
PARKERSBURG    FAIR      85  66  53 SW13      30.25F
$$

WVZ006-211900-
Western West Virginia

CITY           SKY/WX    TMP DP  RH WIND       PRES   REMARKS
HUNTINGTON     FAIR      87  64  46 SW7       30.24F
$$

WVZ015-211900-
West Central West Virginia

CITY           SKY/WX    TMP DP  RH WIND       PRES   REMARKS
CHARLESTON     PTSUNNY   83  62  49 VRB5      30.26F
$$

WVZ022-031-211900-
North Central West Virginia

CITY           SKY/WX    TMP DP  RH WIND       PRES   REMARKS
MORGANTOWN     PTSUNNY   83  62  49 VRB5      30.23F
CLARKSBURG     CLOUDY    86  61  42 W10       30.23F
BUCKHANNON     FAIR      84  63  48 VRB7G16   30.26F
$$

WVZ025-035-042-045-211900-
Southern West Virginia

CITY           SKY/WX    TMP DP  RH WIND       PRES   REMARKS
BECKLEY        PTSUNNY   79  58  48 NW10      30.33F
LOGAN          PTSUNNY   82  61  47 VRB3      30.29F
PINEVILLE      FAIR      86  60  40 MISG      30.34F
BLUEFIELD      PTSUNNY   77  57  50 VRB7      30.35F
LEWISBURG      FAIR      78  61  55 CALM      30.32F
$$

WVZ047-211900-
Northern Mountains of West Virginia

CITY           SKY/WX    TMP DP  RH WIND       PRES   REMARKS
ELKINS         FAIR      84  60  44 W7        30.28F
$$

WVZ052-211900-
Eastern Panhandle of West Virginia

CITY           SKY/WX    TMP DP  RH WIND       PRES   REMARKS
MARTINSBURG    FAIR      88  62  41 CALM      30.18F
PETERSBURG     PTSUNNY   86  61  42 CALM      30.20F
$$

Southeast Ohio/Northeast Kentucky

CITY           SKY/WX    TMP DP  RH WIND       PRES   REMARKS
ATHENS         PTSUNNY   77  67  72 SW8       30.24F
ASHLAND        FAIR      87  66  49 CALM      30.23F
$$




USA.gov is the U.S. government's official web portal to all federal, state and local government web resources and services.